Location: Unspecified
(0.0000°N, 0.0000°E)
Time: 16:09:57
(UTC+00:00)

Envisat - Pass Details

Date: 07 December 2018
Orbit: 764 x 766 km, 98.2° (Epoch: 13 December)

Event Time Altitude Azimuth Distance (km) Brightness Sun altitude
Rises 18:22:17 0° 139° (SE) 3,230 6.0 -7.1°
Reaches altitude 10° 18:25:16 10° 121° (ESE) 2,300 5.1 -7.8°
Maximum altitude 18:28:42 18° 78° (ENE) 1,787 4.3 -8.6°
Drops below altitude 10° 18:32:07 10° 35° (NE) 2,293 5.0 -9.3°
Sets 18:35:04 0° 17° (NNE) 3,215 5.8 -10.0°
